FW7576 Weather Reports


time (UTC)temp
C
wind
direction
speed
KPH
gust
KPH
rain 1hr
cm
rain 24hr
cm
rain mn
cm
humidity
%
barometer
mb
20220629031542 22 256 3.2 8.0 0.00 0.00 0.00 51 1019.2
20220629030031 23 254 3.2 9.7 0.00 0.00 0.00 50 1019.1
20220629024535 23 226 4.8 8.0 0.00 0.00 0.00 49 1019.0
20220629023029 23 228 3.2 8.0 0.00 0.00 0.00 49 1018.8
20220629021529 23 266 3.2 9.7 0.00 0.00 0.00 48 1018.6
20220629020052 24 247 3.2 9.7 0.00 0.00 0.00 46 1018.5
20220629014535 25 227 4.8 11.3 0.00 0.00 0.00 45 1018.5
20220629013029 25 214 3.2 14.5 0.00 0.00 0.00 43 1018.3
20220629011539 25 213 4.8 12.9 0.00 0.00 0.00 41 1018.5
20220629010035 26 232 3.2 11.3 0.00 0.00 0.00 40 1018.4
20220629004531 26 234 4.8 11.3 0.00 0.00 0.00 39 1018.4
20220629003035 26 176 4.8 16.1 0.00 0.00 0.00 39 1018.5
20220629001535 27 208 4.8 16.1 0.00 0.00 0.00 39 1018.6
20220629000041 27 261 4.8 17.7 0.00 0.00 0.00 37 1018.5
20220628234529 27 219 4.8 20.9 0.00 0.00 0.00 36 1018.5
20220628233027 27 248 8.0 24.1 0.00 0.00 0.00 36 1018.7
20220628231533 27 273 6.4 19.3 0.00 0.00 0.00 37 1018.8
20220628230038 27 255 11.3 24.1 0.00 0.00 0.00 36 1019.1
20220628224536 27 264 14.5 30.6 0.00 0.00 0.00 36 1019.1
20220628223029 27 233 4.8 16.1 0.00 0.00 0.00 36 1019.2
20220628221539 28 268 12.9 29.0 0.00 0.00 0.00 34 1019.3
20220628220032 28 249 8.0 30.6 0.00 0.00 0.00 34 1019.4
20220628214534 28 274 9.7 25.7 0.00 0.00 0.00 33 1019.4
20220628213031 28 262 14.5 27.4 0.00 0.00 0.00 33 1019.4
20220628211545 28 263 11.3 22.5 0.00 0.00 0.00 35 1019.4
20220628210030 27 271 9.7 17.7 0.00 0.00 0.00 36 1019.5
20220628204530 28 254 8.0 19.3 0.00 0.00 0.00 35 1019.7
20220628203032 28 188 11.3 29.0 0.00 0.00 0.00 34 1019.7
20220628201539 28 276 6.4 25.7 0.00 0.00 0.00 35 1019.8
20220628200036 28 229 11.3 22.5 0.00 0.00 0.00 33 1020.0
20220628194533 28 219 8.0 20.9 0.00 0.00 0.00 34 1020.1
20220628193038 28 247 9.7 24.1 0.00 0.00 0.00 33 1020.2
20220628191531 28 276 14.5 29.0 0.00 0.00 0.00 34 1020.5
20220628190032 28 254 11.3 27.4 0.00 0.00 0.00 32 1020.6
20220628184528 28 281 11.3 20.9 0.00 0.00 0.00 33 1020.9
20220628183028 28 172 8.0 25.7 0.00 0.00 0.00 33 1020.8
20220628181532 28 290 14.5 25.7 0.00 0.00 0.00 33 1020.9
20220628180036 27 219 14.5 24.1 0.00 0.00 0.00 34 1021.1
20220628174530 27 259 8.0 25.7 0.00 0.00 0.00 35 1021.2
20220628173034 28 299 8.0 24.1 0.00 0.00 0.00 36 1021.3
20220628171544 27 250 8.0 25.7 0.00 0.00 0.00 36 1021.6
20220628170032 27 245 9.7 19.3 0.00 0.00 0.00 37 1021.7
20220628164538 27 249 11.3 25.7 0.00 0.00 0.00 37 1021.8
20220628163038 27 257 11.3 24.1 0.00 0.00 0.00 39 1021.8
20220628161531 26 247 8.0 32.2 0.00 0.00 0.00 41 1022.1
20220628160028 27 257 6.4 17.7 0.00 0.00 0.00 43 1022.2
20220628154533 26 267 9.7 19.3 0.00 0.00 0.00 43 1022.2
20220628153031 25 272 9.7 20.9 0.00 0.00 0.00 47 1022.3
20220628151530 25 243 4.8 11.3 0.00 0.00 0.00 52 1022.4
20220628150027 24 165 6.4 14.5 0.00 0.00 0.00 53 1022.6
20220628144530 23 239 8.0 20.9 0.00 0.00 0.00 55 1022.7
20220628143028 23 227 6.4 14.5 0.00 0.00 0.00 55 1022.7
20220628141527 23 250 6.4 19.3 0.00 0.00 0.00 57 1022.8
20220628140031 22 252 6.4 14.5 0.00 0.00 0.00 58 1022.9
20220628134534 21 222 4.8 16.1 0.00 0.00 0.00 61 1022.9
20220628133031 20 222 3.2 16.1 0.00 0.00 0.00 63 1022.9
20220628131535 20 264 4.8 17.7 0.00 0.00 0.00 64 1023.0
20220628130031 19 278 3.2 14.5 0.00 0.00 0.00 65 1023.2
20220628124533 18 204 3.2 9.7 0.00 0.00 0.00 68 1023.4
20220628123028 17 215 1.6 8.0 0.00 0.00 0.00 71 1023.2
20220628121532 17 193 1.6 6.4 0.00 0.00 0.00 73 1023.3
20220628120031 16 214 1.6 8.0 0.00 0.00 0.00 75 1023.4
20220628114531 15 222 1.6 6.4 0.00 0.00 0.00 78 1023.3
20220628113027 15 0 0.0 4.8 0.00 0.00 0.00 79 1023.4
20220628111525 15 242 0.0 4.8 0.00 0.00 0.00 80 1023.3
20220628110033 13 210 0.0 8.0 0.00 0.00 0.00 81 1023.2
20220628104529 13 271 0.0 3.2 0.00 0.00 0.00 84 1023.3
20220628103029 13 218 0.0 4.8 0.00 0.00 0.00 83 1023.2
20220628101529 13 0 0.0 4.8 0.00 0.00 0.00 83 1023.2
20220628100034 13 0 0.0 1.6 0.00 0.00 0.00 82 1023.1
20220628094530 13 259 1.6 4.8 0.00 0.00 0.00 81 1023.0
20220628093029 13 235 1.6 4.8 0.00 0.00 0.00 80 1022.8
20220628091538 13 240 1.6 4.8 0.00 0.00 0.00 80 1023.0
20220628090036 13 226 0.0 4.8 0.00 0.00 0.00 80 1022.9
20220628084532 13 222 0.0 8.0 0.00 0.00 0.00 80 1023.0
20220628083038 13 228 1.6 6.4 0.00 0.00 0.00 80 1023.0
20220628081528 13 0 0.0 3.2 0.00 0.00 0.00 80 1022.8
20220628080034 13 274 0.0 4.8 0.00 0.00 0.00 79 1023.0
20220628074532 13 0 0.0 3.2 0.00 0.00 0.00 79 1022.9
20220628073028 13 219 0.0 4.8 0.00 0.00 0.00 79 1022.9
20220628071528 13 225 0.0 4.8 0.00 0.00 0.00 79 1022.9
20220628070036 13 0 0.0 3.2 0.00 0.00 0.00 79 1023.0
20220628064535 13 0 0.0 3.2 0.00 0.00 0.00 79 1023.1
20220628063030 14 208 0.0 4.8 0.00 0.00 0.00 79 1023.1
20220628061538 14 0 0.0 3.2 0.00 0.00 0.00 80 1023.2
20220628060029 14 0 0.0 4.8 0.00 0.00 0.00 80 1023.2
20220628054534 13 249 0.0 4.8 0.00 0.00 0.00 82 1023.4
20220628053029 13 0 0.0 1.6 0.00 0.00 0.00 83 1023.4
20220628051533 13 0 0.0 1.6 0.00 0.00 0.00 85 1023.5
20220628050041 13 0 0.0 0.0 0.00 0.00 0.00 87 1023.6
20220628044528 14 0 0.0 1.6 0.00 0.00 0.00 87 1023.5
20220628043028 14 243 0.0 1.6 0.00 0.00 0.00 88 1023.6
20220628041537 14 0 0.0 0.0 0.00 0.00 0.00 88 1023.4
20220628040034 14 0 0.0 0.0 0.00 0.00 0.00 87 1023.6
20220628034530 15 0 0.0 0.0 0.00 0.00 0.00 86 1023.8
20220628033030 15 0 0.0 1.6 0.00 0.00 0.00 85 1023.8